{"data":{"norad_id":47290,"intl_designator":"2020-100AJ","name":"ONEWEB-0144","alt_names":[],"object_type":"PAYLOAD","status":"ACTIVE","operator":null,"country":"UK","launch_date":"2020-12-18","launch_site_code":"VOSTO","launch_vehicle":null,"mission":null,"orbit_class":"UNKNOWN","rcs_meters":null,"size_class":null,"mass_kg":null,"dimensions":null,"purposes":["comms"],"wikipedia_slug":null,"has_3d_model":false,"image_url":null,"decayed_at":null,"tle_current":{"epoch":"2026-05-25T02:43:46.113888Z","epoch_age_seconds":72098,"freshness":"FRESH","line1":"1 47290U 20100AJ  26145.11372817  .00000453  00000+0  12241-2 0  9996","line2":"2 47290  87.8964 355.2291 0001489  93.2270 266.9029 13.12441504261545","mean_motion":13.12441504,"eccentricity":0.0001489,"inclination_deg":87.8964,"raan_deg":355.2291,"arg_perigee_deg":93.227,"mean_anomaly_deg":266.9029,"bstar":0.0012241,"rev_number":26154,"period_min":109.71917572031,"perigee_km":1212.5986312972,"apogee_km":1214.8594890099,"semimajor_km":7591.8660601536,"source":"CELESTRAK","updated_at":"2026-05-25T13:38:22.386351Z"}}}